Terminal Aerodrome Forecast
Issued by NWS

Home | Current Version | Previous Version | Text Only | Print | Product List | Glossary On
Versions: 1 2 3 4 5 6 7 8 9 10 11 12 13 14
000
FTUS45 KFGZ 042327
TAFPGA
TAF
KPGA 042327Z 0500/0524 VRB06KT P6SM SCT070 BKN090
     FM051100 VRB06KT P6SM BKN040 OVC060
      TEMPO 0511/0515 -SHRA=

USA.gov is the U.S. government's official web portal to all federal, state and local government web resources and services.